Tracking 33197 objects as of 19-Feb-2026
HD Live streaming from Space Station
objects crossing your sky now

ARKTIKA-M 2

Track ARKTIKA-M 2 now!


NORAD ID: 58584
Int'l Code: 2023-198A
Perigee: 1,929.3 km
Apogee: 38,440.6 km
Inclination: 63.2 °
Period: 717.8 minutes
Semi major axis: 26555 km
RCS: Unknown
Launch date: December 16, 2023
Source: Commonwealth of Independent States (former USSR) (CIS)
Launch site: TYURATAM MISSILE AND SPACE COMPLEX (TTMTR)
Your satellite tracking list
Your tracking list is empty




NASA's NSSDC Master Catalog

Two Line Element Set (TLE):
1 58584U 23198A   26049.12272524  .00000190  00000-0  00000+0 0  9998
2 58584  63.2210 167.5431 6874405 267.8340  18.8529  2.00613116 15938
Source of the keplerian elements: AFSPC